Weather History for Lawrence, KS

Change the Weather History Date:

Thursday, February 7, 2013

  Actual Average Record
Temperature  
Mean Temperature 43 °F 32 °F  
Max Temperature 53 °F 43 °F 71 °F (2009)
Min Temperature 33 °F 21 °F -9 °F (2004)
Degree Days  
Heating Degree Days 22 33  
Month to date heating degree days 204 235  
Since 1 July heating degree days 3141 3386  
Cooling Degree Days 0 0  
Month to date cooling degree days 0 0  
Year to date cooling degree days 0 0  
Moisture  
Dew Point 40 °F    
Average Humidity 76    
Maximum Humidity 93    
Minimum Humidity 59    
Precipitation  
Precipitation 0.76 in 0.05 in 0.76 in (2013)
Month to date precipitation 0.76 0.33  
Year to date precipitation 1.72 1.34  
Sea Level Pressure  
Sea Level Pressure 29.97 in    
Wind  
Wind Speed 11 mph (NNW)    
Max Wind Speed 23 mph    
Max Gust Speed 29 mph    
Visibility 3 miles    
Events Rain    
T = Trace of Precipitation, MM = Missing Value Source: NWS Daily Summary

Daily Weather History Graph

Daily Weather History Graph

Search for Another Location

Airport:

Trip Planner

Search our weather history database for the weather conditions in past years. The results will help you decide how hot, cold, wet, or windy it might be!

Date:

Astronomy

Feb. 07, 2013 Rise Set
Actual Time 7:21 AM CST 5:49 PM CST
Civil Twilight 6:53 AM CST 6:17 PM CST
Nautical Twilight 6:21 AM CST 6:48 PM CST
Astronomical Twilight 5:50 AM CST 7:19 PM CST
Moon 5:00 AM CST (2/7) 3:15 PM CST (2/7)
Length of Visible Light 11h 23m
Length of Day
10h 28m
Waning Crescent, 9% of the Moon is Illuminated
Feb 7
Waning Crescent
Feb 10
New
Feb 17
First Quarter
Feb 25
Full
Mar 4
Last Quarter

Hourly Weather History & Observations

Time (CST) Temp. Windchill Dew Point Humidity Pressure Visibility Wind Dir Wind Speed Gust Speed Precip Events Conditions
12:52 AM 51.1 °F - 39.9 °F 66% 29.89 in 10.0 mi ESE 8.1 mph - N/A   Mostly Cloudy
1:52 AM 53.1 °F - 39.9 °F 61% 29.87 in 9.0 mi South 8.1 mph - N/A   Mostly Cloudy
2:50 AM 50.0 °F - 42.8 °F 76% 29.88 in 6.0 mi East 3.5 mph - 0.02 in Rain Light Rain
2:52 AM 50.0 °F - 42.1 °F 74% 29.88 in 5.0 mi East 3.5 mph - 0.03 in Rain Light Rain
3:36 AM 48.2 °F - 42.8 °F 82% 29.87 in 8.0 mi SE 6.9 mph - 0.01 in   Overcast
3:52 AM 48.9 °F - 44.1 °F 83% 29.87 in 7.0 mi SSE 5.8 mph - 0.02 in Rain Light Rain
4:20 AM 46.4 °F - 44.6 °F 93% 29.87 in 4.0 mi Calm Calm - 0.03 in Rain Light Rain
4:52 AM 48.0 °F - 45.0 °F 89% 29.87 in 4.0 mi Calm Calm - 0.08 in Rain Light Rain
5:08 AM 46.4 °F - 44.6 °F 93% 29.88 in 2.5 mi Calm Calm - 0.03 in Rain Light Rain
5:12 AM 46.4 °F - 44.6 °F 93% 29.88 in 1.8 mi Calm Calm - 0.06 in Rain Light Rain
5:30 AM 46.4 °F - 46.4 °F 100% 29.87 in 1.2 mi Calm Calm - 0.20 in Rain Rain
5:52 AM 46.9 °F - 45.0 °F 93% 29.87 in 1.0 mi East 4.6 mph - 0.27 in Rain Light Rain
6:26 AM 48.2 °F - 46.4 °F 93% 29.87 in 1.5 mi Calm Calm - 0.06 in Rain Light Rain
6:44 AM 48.2 °F - 46.4 °F 93% 29.87 in 1.0 mi Calm Calm - 0.08 in Rain Light Rain
6:52 AM 48.0 °F - 46.0 °F 93% 29.88 in 0.8 mi Calm Calm - 0.08 in Rain Light Rain
7:07 AM 48.2 °F - 44.6 °F 87% 29.88 in 1.0 mi WNW 3.5 mph - 0.00 in Rain Light Rain
7:52 AM 48.0 °F - 46.0 °F 93% 29.90 in 1.0 mi WNW 4.6 mph - 0.06 in Rain Light Rain
8:04 AM 48.2 °F - 46.4 °F 93% 29.91 in 1.2 mi West 5.8 mph - 0.04 in Rain Light Rain
8:29 AM 48.2 °F - 46.4 °F 93% 29.92 in 1.0 mi West 6.9 mph - 0.09 in Rain Light Rain
8:52 AM 48.0 °F - 45.0 °F 89% 29.94 in 1.2 mi NW 13.8 mph - 0.15 in Rain Light Rain
9:08 AM 46.4 °F 39.8 °F 42.8 °F 87% 29.93 in 2.0 mi NNW 16.1 mph - 0.03 in Rain Light Rain
9:17 AM 46.4 °F 40.7 °F 42.8 °F 87% 29.92 in 2.0 mi North 12.7 mph - 0.03 in Rain Light Rain
9:52 AM 44.1 °F 38.6 °F 39.9 °F 85% 29.96 in 2.0 mi NNW 10.4 mph - 0.05 in Rain Light Rain
10:01 AM 44.6 °F 40.2 °F 39.2 °F 81% 29.96 in 1.5 mi NNW 8.1 mph - 0.01 in Rain Light Rain
10:16 AM 44.6 °F 38.8 °F 39.2 °F 81% 29.95 in 2.0 mi NNW 11.5 mph - 0.02 in Rain Light Rain
10:35 AM 44.6 °F 39.2 °F 41.0 °F 87% 29.95 in 3.0 mi North 10.4 mph - 0.02 in   Mostly Cloudy
10:52 AM 45.0 °F 39.3 °F 39.9 °F 82% 29.97 in 4.0 mi North 11.5 mph - 0.02 in   Haze
11:52 AM 46.9 °F - 39.9 °F 77% 29.99 in 5.0 mi NW 15.0 mph - N/A   Haze
12:48 PM 48.2 °F - 41.0 °F 76% 29.98 in 4.0 mi NNW 16.1 mph - N/A   Haze
12:52 PM 48.0 °F - 39.9 °F 74% 29.98 in 4.0 mi NNW 12.7 mph - N/A   Haze
1:52 PM 50.0 °F - 41.0 °F 71% 29.99 in 4.0 mi NNW 17.3 mph - N/A   Haze
2:16 PM 51.8 °F - 41.0 °F 67% 29.98 in 5.0 mi North 17.3 mph 23.0 mph N/A   Haze
2:52 PM 51.1 °F - 39.0 °F 63% 29.99 in 4.0 mi NNW 20.7 mph 28.8 mph N/A   Haze
3:52 PM 48.9 °F - 36.0 °F 61% 30.02 in 4.0 mi NNW 18.4 mph 24.2 mph N/A   Haze
4:52 PM 46.9 °F - 35.1 °F 63% 30.05 in 3.0 mi NNW 15.0 mph - N/A   Haze
5:52 PM 44.1 °F 36.8 °F 34.0 °F 68% 30.08 in 3.0 mi NNW 16.1 mph - N/A   Haze
6:52 PM 39.0 °F 31.0 °F 33.1 °F 79% 30.13 in 3.0 mi NNW 13.8 mph - N/A   Haze
7:52 PM 37.9 °F 29.6 °F 30.9 °F 76% 30.15 in 3.0 mi NNW 13.8 mph - N/A   Haze
8:52 PM 35.1 °F 25.5 °F 28.0 °F 76% 30.19 in 3.0 mi North 15.0 mph 19.6 mph N/A   Haze
9:52 PM 34.0 °F 24.2 °F 26.1 °F 73% 30.21 in 4.0 mi North 15.0 mph 25.3 mph N/A   Haze
10:52 PM 33.1 °F 24.9 °F 26.1 °F 75% 30.23 in 5.0 mi NNW 10.4 mph - N/A   Haze
11:52 PM 33.1 °F 24.4 °F 26.1 °F 75% 30.25 in 6.0 mi North 11.5 mph - N/A   Haze